Lid_Strength_Index
12 12 12 11 11 11 11 11 11 11 11 11 11 12 12 12 12 11 11 6 5 4 3 3 3 3 3 3 3 2 3 2 2 2 2 2 1 1 1 0 0 -0 -0
12 12 12 11 11 11 11 11 11 11 11 11 11 11 12 12 12 12 11 11 6 6 5 4 4 3 3 3 3 3 3 3 3 2 3 2 2 2 1 1 1 1 0
12 12 12 12 12 11 11 11 11 11 11 10 11 11 11 12 12 12 11 11 10 7 6 5 5 4 4 3 3 3 3 3 3 3 2 2 2 2 2 1 1 2 1
11 11 12 12 11 12 11 12 12 12 12 12 12 11 12 12 11 11 11 11 11 10 9 6 6 5 5 4 4 4 3 3 3 3 2 2 2 2 2 2 2 2 1
10 11 12 11 11 12 12 12 12 12 12 12 11 11 12 12 12 10 11 11 11 10 11 8 6 6 6 5 4 4 4 4 4 3 3 3 2 3 2 2 2 2 2
10 11 11 11 11 12 12 12 12 12 12 12 10 11 12 12 12 12 12 11 11 11 11 11 11 10 6 5 5 5 4 4 4 4 3 3 3 2 2 2 2 2 2
10 11 11 11 11 12 12 12 12 13 12 12 13 13 13 13 13 12 12 12 12 11 11 11 11 11 11 6 6 5 5 4 4 4 3 3 3 3 3 2 2 2 1
10 11 11 11 11 11 12 12 12 13 13 12 14 15 15 14 13 12 13 12 12 12 11 11 11 11 12 11 9 6 6 5 4 4 3 3 3 3 2 2 2 1 1
10 10 11 11 11 11 12 12 12 12 13 12 13 13 17 17 15 13 13 12 12 12 12 12 11 11 11 12 9 9 6 5 5 4 3 3 3 3 3 2 2 2 1
10 10 10 11 11 11 12 12 11 12 12 13 12 11 13 14 15 15 13 13 12 11 12 12 11 11 11 11 9 7 6 5 5 4 3 3 3 3 3 3 3 2 1
10 11 10 11 11 11 11 11 11 12 12 12 13 13 13 14 14 15 16 14 13 12 11 11 11 11 11 11 11 9 6 6 5 4 4 4 3 3 3 3 2 1 -0
10 11 11 10 10 11 11 11 11 12 12 12 12 13 13 14 14 15 16 15 15 13 12 12 12 12 11 11 9 6 5 5 5 5 4 4 4 4 3 3 2 1 -0
12 11 11 11 11 11 10 11 11 11 12 12 12 12 12 12 12 13 14 15 14 14 13 12 12 12 10 11 10 7 6 5 5 5 5 5 4 4 4 4 3 2 1
11 11 11 11 11 11 11 11 11 11 12 11 12 12 12 11 12 12 13 14 15 15 14 14 12 12 11 11 10 6 8 6 6 5 5 5 5 4 4 4 3 3 2
10 11 11 11 11 11 11 11 11 11 11 11 11 12 11 11 11 12 12 13 14 16 16 14 14 12 12 11 10 9 10 8 6 5 5 5 5 4 4 3 3 3 2
11 11 11 11 11 11 11 11 11 11 11 11 11 12 12 11 11 11 12 12 13 13 14 13 13 12 11 10 10 9 10 8 7 6 5 6 5 5 5 4 4 3 3
11 10 10 10 10 11 11 11 11 11 11 11 11 11 11 12 11 11 12 12 12 12 13 12 12 12 12 11 11 11 10 12 11 6 6 6 5 5 5 4 3 3 3
10 10 10 10 10 10 10 11 11 11 11 11 11 12 11 10 12 11 12 12 12 12 12 13 12 13 12 11 11 12 11 11 11 8 6 6 6 6 5 4 4 4 4
10 10 10 11 10 10 10 10 10 11 11 11 11 12 11 11 11 11 12 12 12 11 12 12 12 13 12 12 12 12 12 13 10 7 7 7 6 6 6 5 4 5 5
11 11 10 10 10 10 10 10 10 11 11 11 11 11 12 12 11 11 12 11 11 12 12 12 12 12 13 12 12 12 13 14 13 10 9 8 6 6 6 6 5 6 6
10 11 11 10 10 10 10 11 11 11 11 11 11 11 11 11 9 9 11 11 11 12 11 12 12 13 13 14 14 14 15 15 14 14 14 13 12 11 11 8 7 6 5
12 12 11 11 11 10 8 7 9 11 11 11 12 11 11 9 9 7 7 6 9 12 12 12 12 13 12 14 16 14 13 17 17 14 15 14 12 12 12 11 7 5 5
12 13 12 12 11 11 8 7 7 9 11 11 11 11 12 11 10 11 9 7 6 5 7 11 11 12 13 13 14 14 14 14 14 15 14 12 14 13 12 10 7 5 5
12 12 12 12 12 11 8 7 6 8 9 10 11 11 11 11 11 12 12 12 11 8 7 7 10 10 10 12 12 12 13 15 13 11 11 13 16 16 13 12 7 6 6
12 12 12 12 12 11 8 7 7 9 9 9 9 10 11 11 10 9 11 13 12 11 7 5 5 6 6 6 10 14 14 14 15 17 15 15 17 16 14 13 11 8 7
12 12 12 12 10 11 8 8 7 9 10 10 9 9 8 9 8 8 10 11 13 12 13 11 10 7 6 6 5 12 13 15 17 17 15 15 16 15 16 15 14 12 12